www.pogodaiklimat.ru

Погода и климат >> Архив погоды >> Китай >> Синьцзян-Уйгурский автономный район >> Чарклык


ПОГОДА в Чарклыке

  • Прогноз погоды в Чарклыке
  • Монитор погоды в Чарклыке

АРХИВ ПОГОДЫ в Чарклыке

Время (UTC), дата Ветер
(напр.,м/с)
 
Видим.   Явления Облачность Т
(С)
Тd
(С)
f
(%)
Тe
(С)
Тes
(С)
Комфортность P
(гПа)
Po
(гПа)
Тmin
(С)
Tmax
(С)
R
(мм)
R24
(мм)
S
(см)
18 11.08 С 1 26 км ?/? +19.1 +12.1 64 +21 +21 комфорт 1002.1 905.1 +30.3
21 11.08 З 1 30 км н/о +15.9 +12.3 79 +17 +17 1002.2 902.2
00 12.08 Ю 1 12 км 3/3
[]
+15.4 +11.6 78 +16 +16 1003.2 905.8
03 12.08 СЗ 1 27 км ясно +24.5 +8.9 37 +25 +37 комфорт 1003.7 906.3
06 12.08 СВ 2 23 км ясно +32.4 +12.1 29 +33 +51 опасность
солнечного
удара
1002.2 906.0 +14.9
09 12.08 В 1 27 км ясно +36.7 +14.1 26 +37 +50 очень
жарко
999.8 906.4
12 12.08 штиль 0 20 км 6/6
[]
+31.5 +17.4 43 +35 +36 очень
душно
1000.3 903.5
15 12.08 штиль 0 22 км н/о +21.3 +16.5 74 +25 +25 комфорт 1002.7 904.4
18 12.08 штиль 0 28 км ?/? +18.5 +15.4 82 +19 +19 1002.1 905.8 +38.0
21 12.08 штиль 0 30 км н/о +17.2 +14.5 84 +17 +17 1002.0 902.5
00 13.08 штиль 0 30 км ясно +17.5 +12.8 74 +18 +18 1004.0 907.2
03 13.08 СЗ 1 19 км ясно +27.5 +11.9 38 +29 +40 жарко 1005.1 908.5
06 13.08 СВ 2 29 км ясно +36.2 +9.7 20 +35 +53 опасность
солнечного
удара
1002.1 906.4 +16.2
09 13.08 СВ 3 22 км ясно +37.3 +8.2 17 +35 +44 очень
жарко
999.8 906.6
12 13.08 СВ 1 24 км 9/9
[]
+33.5 +6.7 19 +32 +32 жарко 999.1 903.1
15 13.08 В 2 30 км н/о +27.1 +2.9 21 +26 +26 жарко 998.8 902.7
18 13.08 С 2 30 км ?/? +22.2 +2.8 28 +22 +22 комфорт 997.7 902.9 +37.9
21 13.08 штиль 0 30 км н/о +16.1 +10.4 69 +16 +16 998.1 898.6
00 14.08 штиль 0 30 км 9/9
[]
+14.9 +9.9 72 +15 +15 998.4 902.1
03 14.08 С 2 30 км ясно +26.8 +6.3 27 +26 +36 жарко 997.3 901.2
06 14.08 В 6 10 км ясно +36.2 +2.3 12 +33 +40 жарко 992.9 898.6 +14.3
09 14.08 СВ 4 3100 м пыльный позёмок 10/10
[]
+38.3 +2.7 11 +35 +35 очень
жарко
990.7 898.6
12 14.08 СВ 4 4700 м пыльный позёмок 10/10
[]
+36.5 -1.4 9 +33 +33 жарко 991.0 895.8
15 14.08 СВ 3 1100 м мгла н/о +32.8 -0.3 12 +29 +29 жарко 992.0 898.2
18 14.08 С 3 4100 м мгла ?/? +30.3 -3.4 11 +27 +27 жарко 992.1 899.0 +38.6
21 14.08 В 2 30 км н/о +26.2 -1.6 16 +24 +24 комфорт 992.5 896.7
00 15.08 В 1 9000 м 9/9
[]
+19.7 +8.7 49 +22 +22 комфорт 994.4 899.6
03 15.08 штиль 0 26 км 10/10
[]
+28.1 +9.9 32 +28 +28 жарко 994.6 899.2
06 15.08 ЮВ 1 30 км 10/10
[]
+30.7 +13.0 34 +32 +32 жарко 993.9 899.9 +19.3
09 15.08 Ю 1 17 км 10/10
[]
+29.6 +20.5 58 +36 +36 очень
душно
993.6 898.7
12 15.08 ЮЗ 1 5000 м пыль 10/10
[]
+29.7 +20.0 56 +36 +36 очень
душно
993.7 898.0
15 15.08 Ю 1 4800 м дымка н/о +22.8 +16.1 66 +27 +27 душно 995.3 898.2
18 15.08 штиль 0 4800 м дымка ?/? +21.9 +13.5 59 +25 +25 комфорт 996.2 900.7 +34.0
21 15.08 штиль 0 6000 м дымка н/о +19.7 +14.5 72 +21 +21 комфорт 997.9 899.6
00 16.08 В 2 16 км 3/3
[]
+21.7 +4.7 33 +22 +22 комфорт 998.7 902.8
03 16.08 В 5 15 км 9/9
[]
+28.8 +9.5 30 +29 +29 жарко 998.6 903.0
06 16.08 В 6 17 км 5/5
[]
+33.6 +9.0 22 +32 +36 жарко 995.2 900.2 +17.4
09 16.08 В 6 3300 м пыльный позёмок 3/3
[]
+35.7 +6.0 16 +33 +36 жарко 992.0 899.1
12 16.08 СВ 6 6000 м пыльный позёмок 9/9
[]
+35.2 +3.7 14 +32 +32 жарко 989.6 895.4
15 16.08 В 5 2200 м мгла н/о +32.1 +3.1 16 +29 +29 жарко 989.4 895.7
18 16.08 В 5
{19}
200 м мгла ?/? +29.9 +4.5 20 +28 +28 жарко 988.8 895.6 +35.9
21 16.08 В 5
{19}
300 м мгла ?/? +27.4 +3.2 21 +26 +26 жарко 988.3 893.3
00 17.08 СВ 4 900 м пыль ясно +24.8 +4.6 27 +24 +24 комфорт 989.6 895.8
03 17.08 В 4 1500 м пыль н/о +25.9 +4.9 26 +25 +25 комфорт 990.9 895.2
06 17.08 В 1 3300 м пыль ?/? +29.9 +10.5 30 +30 +30 жарко 991.3 897.3 +24.5
09 17.08 Ю 1 2800 м пыль н/о +32.3 +14.9 35 +34 +34 душно 989.8 896.1
12 17.08 штиль 0 2200 м пыль ?/? +28.1 +17.6 53 +32 +32 душно 991.5 896.5
15 17.08 штиль 0 2300 м дымка н/о +26.1 +18.5 63 +31 +31 очень
душно
995.1 899.0
18 17.08 В 1 2200 м мгла ?/? +24.9 +16.6 60 +28 +28 жарко 996.6 901.4 +32.5
21 17.08 ЮЗ 4 1400 м мгла н/о +29.8 +9.9 29 +30 +30 жарко 995.9 900.9
00 18.08 ЮЗ 3 1200 м пыль ?/? +28.8 +10.5 32 +29 +29 жарко 997.3 902.3
03 18.08 ЮЗ 2 2600 м пыль н/о +28.0 +12.8 39 +29 +29 жарко 998.7 902.9
06 18.08 З 3 2500 м пыль ?/? +29.8 +12.3 34 +31 +31 жарко 997.1 901.8 +24.7
09 18.08 штиль 0 2100 м пыль н/о +27.9 +15.2 46 +31 +31 душно 996.3 900.7
12 18.08 штиль 0 4700 м слаб. дождь ?/? +24.2 +17.0 64 +28 +28 душно 1000.1 904.3 0.0

 

Местоположение метеостанции Чарклык (Синьцзян-Уйгурский автономный район, Китай): широта 39.03 долгота 88.17 высота над уровнем моря 889 м.

В архиве по умолчанию представлена погода в Чарклыке за последнюю неделю. Архивные данные за месяц целиком и за предыдущие месяцы, начиная с января 2011 года, Вы можете получить, выбрав интересующий диапазон дат из раскрывающегося списка и нажав кнопку "Ввод!".


*Определитесь, кто Вы:
робот инопланетянин человек

Внимание! Время в таблицах - всемирное. Для получения местного времени необходимо прибавить поправку, которая равна 8 ч.

Смотрите также архив погоды в соседних городах и на ближайших метеорологических станциях:

Погода в Тиканлике (Синьцзян-Уйгурский автономный район, Китай) (182 км)
Погода в Маннае (Цинхай, Китай) (248 км)
Погода в Корле (Синьцзян-Уйгурский автономный район, Китай) (348 км)
Погода в Тажонге (Синьцзян-Уйгурский автономный район, Китай) (389 км)
Погода в Балун Тай Кун (Синьцзян-Уйгурский автономный район, Китай) (433 км)
Погода в Турфане (Синьцзян-Уйгурский автономный район, Китай) (442 км)
Погода в Лэнху (Цинхай, Китай) (451 км)
Погода в Урумчи (Синьцзян-Уйгурский автономный район, Китай) (532 км)
Погода в Куче (Синьцзян-Уйгурский автономный район, Китай) (534 км)
Погода в Цзяньфане (Синьцзян-Уйгурский автономный район, Китай) (553 км)

Пояснения к столбцам:

Ветер - указаны скорость ветра в м/с - средняя за 10 мин, порывы в срок и между сроками (в фигурных скобках) и направление, откуда дует ветер: С - северный, СВ - северо-восточный, В - восточный, ЮВ - юго-восточный, Ю - южный, ЮЗ - юго-западный, З - западный, СЗ - северо-западный.
Видимость - горизонтальная дальность видимости в метрах или километрах. При видимости от 1 до 10 км при отсутствии осадков обычно наблюдается дымка, при ухудшении видимости до 1 км и менее - туман. В сухую погоду видимость может ухудшаться дымом, пылью или мглою.
Явления - указаны атмосферные явления, наблюдавшиеся в срок или в последний час перед сроком; фигурными скобками обозначены явления, наблюдавшиеся между сроками (за 1-3 часа до срока); квадратными скобками обозначены град или гололедные отложения с указанием их диаметра в мм.
Облачность - указаны через наклонную черту общая и нижняя облачность в баллах и высота нижней границы облаков в метрах; квадратными скобками обозначены формы облаков: Ci - перистые, Cs - перисто-слоистые, Cc - перисто-кучевые, Ac - высококучевые, As - высокослоистые, Sc - слоисто-кучевые, Ns - слоисто-дождевые, Cu - кучевые, Cb - кучево-дождевые. Подробнее классификацию облаков см. в Атласе облаков (PDF).
T - Температура воздуха - температура, измеренная на высоте 2 м над землей.
Td - Температура точки росы - температура, при понижении до которой содержащийся в воздухе водяной пар достигнет насыщения.
f - Относительная влажность воздуха - влажноcть воздуха, измеренная на высоте 2 м над землей.
Te - Эффективная температура - температура, которую ощущает одетый по сезону человек в тени. Характеристика душности погоды. При расчете учитывается влияние влажности воздуха и скорости ветра на теплоощущения человека.
Tes - Эффективная температура на солнце - температура, которую ощущает человек, с поправкой на солнечный нагрев. Характеристика знойности погоды. Зависит от высоты солнца над горизонтом, облачности и скорости ветра. Ночью, в пасмурную погоду, а также при ветре 12 м/с и более поправка равна нулю.
P - Атмосферное давление - приведенное к уровню моря атмосферное давление.
Po - Атмосферное давление - измеренное на уровне метеостанции атмосферное давление.
Tmin - Минимальная температура - минимум температуры воздуха на высоте 2 м над землей.
Tmax - Максимальная температура - максимум температуры воздуха на высоте 2 м над землей.
R - Количество осадков - Количество выпавших осадков за период времени, мм. При наведении курсора мыши на число - период времени, за который выпало указанное количество осадков.
R24 - Количество осадков - Количество выпавших осадков за 24 часа, мм.
S - Снежный покров - Высота снежного покрова, см. При наведении курсора мыши на число - состояние снежного покрова и степень покрытия местности в баллах.